Forside
METAR-TAF:

METAR-TAF

Lufthavne :

Tri-City Airport

Parsons, Kansas, USA

Breddekreds: 37-19-40N, længdekreds: 095-30-15W, højde: 274 m

Aktuelle vejr

Denne rapport blev lavet for 46 minutter siden, kl. 22:52 UTC
Vind 3 kt fra nordøst
Temperatur 2°C
Fugtighed 44%
Tryk 1028 hPa
Sigt: 16.1 km
skyfri

METAR: KPPF 142252Z AUTO 05003KT 10SM CLR 02/M09 A3037 RMK AO2 SLP296 T00221094

Tid: 17:38 (23:38 UTC)


TAF: fraværende

Vejrobservationer og prognoser fra mere end 4000 lufthavne (METAR og TAF).

De gule og røde prikker repræsenterer de meteorologiske stationer.

Flyt musen over at se navnet på stationen.

Så klik over at se vejr observationer og prognoser.

At skifte det kort: Klik på de grønne knapper med et sort kors for at zoome ind; på den grønne knap med en bindestreg for at zoome ud; eller på de grønne pile for tilstødende kort.


METAR-TAF: